Vorticity
nan nan nan nan nan nan nan nan nan nan nan nan nan nan nan nan nan nan nan nan nan nan nan nan nan nan nan nan nan nan nan nan nan nan nan nan nan nan nan nan nan nan nan
nan 7 8 7 8 7 7 8 8 8 8 9 8 8 8 8 8 6 7 13 12 8 10 10 8 7 7 7 7 7 7 6 6 7 7 7 6 6 7 7 7 7 nan
nan 7 7 7 8 8 8 8 7 7 9 9 9 10 9 9 8 7 7 9 13 12 13 12 9 9 8 8 8 8 8 7 6 6 7 7 7 7 7 7 8 8 nan
nan 7 7 7 7 8 7 8 8 8 10 9 9 9 8 8 8 9 8 8 8 11 14 14 12 10 8 7 8 9 7 6 6 7 6 7 8 8 8 8 8 8 nan
nan 8 7 7 7 8 8 7 8 9 8 8 8 8 9 9 9 9 8 8 9 7 10 13 14 13 9 8 9 8 8 8 7 6 6 7 8 8 8 9 8 8 nan
nan 7 7 8 8 8 8 8 8 8 7 9 10 10 10 8 9 8 9 10 10 8 8 9 10 15 15 9 9 9 8 7 7 7 6 8 9 9 8 8 8 8 nan
nan 6 7 7 8 8 9 8 8 8 8 9 9 11 10 10 9 9 9 8 9 11 9 8 7 9 15 16 11 9 9 9 8 7 8 9 9 8 9 9 8 8 nan
nan 7 7 8 8 8 9 8 7 7 9 8 6 7 8 10 12 12 9 8 8 9 10 10 9 8 8 12 14 12 8 9 8 9 8 9 9 9 8 8 7 7 nan
nan 8 7 8 8 8 8 8 9 7 7 8 9 5 7 8 9 11 9 9 9 7 8 10 11 9 8 9 9 10 10 11 11 9 9 9 9 9 8 8 7 8 nan
nan 9 9 7 8 8 8 8 8 8 8 8 9 9 8 8 6 8 10 10 11 10 9 9 9 10 9 9 10 10 12 12 12 11 10 10 10 8 8 7 8 8 nan
nan 10 9 9 9 7 9 8 8 8 6 8 8 8 9 9 10 8 5 9 11 11 11 10 9 9 9 8 10 13 13 9 9 12 12 11 11 9 7 7 8 8 nan
nan 9 11 9 9 8 8 8 9 9 7 7 8 8 8 7 9 9 9 7 7 9 12 11 10 9 9 10 11 11 9 8 10 13 12 12 11 10 10 9 9 9 nan
nan 10 10 10 9 9 9 9 10 9 8 8 7 6 7 7 7 8 9 9 9 7 10 10 11 10 10 10 13 13 7 7 9 10 9 10 11 11 9 10 9 10 nan
nan 8 7 9 9 10 9 8 8 9 10 7 7 7 8 9 8 6 7 8 8 8 9 10 9 12 11 11 12 11 9 10 10 9 7 7 9 10 10 10 10 9 nan
nan 8 7 9 9 8 9 10 8 9 9 9 10 8 7 8 9 8 7 7 7 7 8 11 8 9 10 12 12 10 10 13 10 8 9 9 9 10 10 10 9 8 nan
nan 12 11 12 11 9 10 9 8 11 9 8 10 10 7 8 9 10 9 8 8 8 8 9 8 8 9 10 13 12 11 11 12 10 10 10 10 11 10 9 10 9 nan
nan 11 11 12 13 12 12 11 9 10 8 8 10 10 7 9 8 9 10 8 9 9 8 5 10 9 8 10 11 11 10 10 13 13 10 10 11 11 11 10 9 8 nan
nan 11 11 10 11 12 13 12 10 11 10 9 8 8 8 10 10 9 9 9 9 8 9 7 7 12 9 8 8 10 11 11 12 14 10 9 9 9 10 9 9 8 nan
nan 10 11 11 11 12 12 10 10 10 10 11 12 9 9 8 9 9 9 9 9 9 8 9 7 8 9 10 11 10 10 11 11 13 12 10 10 10 10 10 9 9 nan
nan 8 9 10 10 11 13 13 12 10 10 11 11 10 11 9 8 8 11 11 10 9 9 9 7 7 8 10 9 9 10 9 10 13 13 13 12 12 12 12 10 10 nan
nan 9 8 9 9 10 8 9 13 13 11 10 10 11 12 11 9 8 7 9 9 9 8 9 8 9 8 9 9 8 9 8 9 10 10 10 11 10 12 12 12 14 nan
nan 9 9 9 9 7 4 7 12 14 12 11 10 10 10 11 13 12 11 10 6 5 6 8 9 9 9 8 10 9 8 9 9 12 9 8 10 7 11 13 14 14 nan
nan 9 9 9 10 9 8 7 8 11 11 11 10 9 11 12 10 11 13 13 14 13 9 7 10 8 10 9 8 10 10 8 9 9 10 9 11 11 12 14 15 10 nan
nan 11 11 10 10 10 10 7 10 11 10 10 10 10 10 10 10 11 11 11 12 15 17 12 7 6 7 10 10 10 10 9 11 10 10 11 9 11 12 14 16 12 nan
nan 11 10 10 10 10 10 9 12 11 10 12 12 12 11 11 13 11 9 9 10 12 16 15 11 10 7 9 9 10 11 9 10 13 10 11 9 12 11 12 17 17 nan
nan nan nan nan nan nan nan nan nan nan nan nan nan nan nan nan nan nan nan nan nan nan nan nan nan nan nan nan nan nan nan nan nan nan nan nan nan nan nan nan nan nan nan
CAPE
1 39 25 86 6 0 0 63 154 245 406 425 414 449 572 518 598 569 488 780 1672 2006 2174 2647 1851 2170 1750 1603 1886 1918 1994 2144 2475 2117 1947 1793 2081 2052 1825 1693 1763 1711 1850
51 50 85 100 128 88 58 69 135 112 147 173 483 494 595 631 498 484 719 636 1482 1872 2100 2507 2740 2608 2427 2143 2067 2009 2231 2329 2353 2051 1987 2397 2284 2167 1943 1968 1910 1996 2280
197 241 99 4 6 7 66 119 138 127 390 363 538 661 745 828 623 534 514 566 661 1414 2309 2013 2081 2394 2732 2537 2261 2154 2377 2372 2487 2117 2324 2419 2360 2173 2102 2135 2151 2131 2058
232 173 71 25 5 62 119 239 232 368 322 312 494 551 463 238 663 861 593 545 643 514 800 2440 2282 1877 2451 2693 2613 2519 2410 2407 2379 2215 2176 2416 2292 2250 2003 2075 1970 1822 1712
220 41 104 85 16 90 93 194 442 519 518 531 393 98 126 304 179 728 1336 831 785 843 764 1330 2151 2066 1986 1632 2511 2877 2675 2576 2414 2366 2332 2404 2462 2098 2103 2251 2231 2142 2137
205 105 78 121 313 177 213 300 409 277 956 871 538 729 570 711 715 608 823 1084 1078 820 1097 1089 1485 1589 2125 2068 1977 2462 2812 2790 2554 2475 2518 2456 2445 2209 2223 2260 2189 2262 2106
242 223 213 170 291 346 449 410 202 39 266 490 565 511 387 204 153 237 811 986 1032 1293 1105 1133 1122 1399 1507 2078 1866 2241 2691 2910 2737 2528 2502 2510 2427 2035 2296 2196 2154 2087 2054
171 258 316 255 115 155 356 287 436 622 435 390 203 157 377 211 203 428 437 671 955 1235 1465 1281 975 1009 1282 1493 1879 2295 2325 2486 2920 2965 2936 2684 2561 2057 2134 2050 2012 2031 2079
203 144 277 201 133 237 372 171 436 620 918 401 169 573 509 620 12 111 105 271 653 1017 1136 1387 1130 959 897 985 1130 1281 1857 1948 2271 2593 2909 2444 2686 2416 2241 2154 2016 1970 1963
314 381 348 491 245 188 458 353 377 507 373 705 345 476 434 355 752 478 172 2 148 383 611 512 555 616 619 784 758 784 1396 1727 2080 2337 2705 2738 2751 2754 2669 2427 2234 2039 1849
498 829 477 848 710 459 411 490 798 617 489 619 652 555 471 409 55 142 528 672 269 275 447 407 227 293 133 601 820 702 1172 1114 1202 1817 2220 2583 2809 2908 2763 2825 2601 2277 2278
576 821 673 883 486 515 429 326 430 786 802 726 822 610 698 603 536 300 220 307 316 428 153 135 279 285 408 398 210 128 166 339 394 1040 1348 2040 2424 2723 2646 2653 2800 2594 2488
749 823 839 986 889 726 484 722 403 563 793 543 663 786 749 766 523 272 307 403 187 337 617 400 88 91 154 617 505 373 420 345 243 452 512 889 1471 1978 2457 2703 2915 2947 2755
757 805 779 731 939 995 1075 882 708 761 681 706 801 705 798 788 597 625 801 542 481 86 53 569 353 152 92 330 567 484 703 126 88 3 0 0 10 193 1053 1812 2280 2462 2522
756 1108 121 932 832 790 846 1100 1084 1063 807 851 822 628 647 746 798 717 710 489 628 596 358 234 435 549 168 102 209 603 667 269 22 0 0 0 0 0 346 741 1141 1330 1376
559 882 790 949 1085 1026 926 1013 1182 1239 976 995 937 911 1052 927 773 743 894 846 431 628 552 139 411 386 564 430 207 452 446 319 237 69 0 0 0 0 66 269 476 576 583
140 248 425 406 602 957 1266 1179 1303 851 1059 1246 1191 1215 1231 1334 1386 664 485 738 737 474 532 537 512 683 608 641 316 640 640 639 740 189 49 0 0 0 0 77 128 187 215
0 42 109 189 243 684 953 601 761 1326 1236 1185 1286 1208 1206 1278 1234 1217 742 723 971 952 783 871 829 548 283 836 783 624 450 310 803 215 110 83 118 53 22 2 6 2 2
0 0 1 50 152 395 663 572 543 662 983 1074 1081 1207 1260 923 1169 861 1085 798 742 945 835 732 942 725 590 1137 639 525 867 536 564 355 362 528 441 187 3 0 0 0 0
0 0 0 0 1 46 328 463 332 476 1071 1299 1386 1366 1486 1430 1424 1485 942 1001 899 684 494 478 751 1014 790 616 812 928 1387 1092 666 709 743 1063 713 333 82 0 0 0 0
0 0 0 0 0 0 44 95 345 851 803 839 1104 1291 1400 1317 1160 1109 1244 1255 1246 744 661 813 528 791 884 711 740 991 821 1010 1044 975 335 882 1129 1257 1008 10 7 0 0
0 0 0 0 0 0 0 0 0 114 297 412 564 475 514 498 726 762 642 444 846 1369 810 579 809 740 814 681 806 751 800 587 691 623 641 609 467 639 708 831 357 0 0
2 1 0 0 0 0 0 0 0 0 49 247 468 511 473 681 638 1076 981 832 498 152 329 1096 1245 1216 1236 1002 659 533 425 637 501 422 228 214 18 92 418 479 151 8 0
1 1 2 1 1 0 0 0 0 0 2 61 196 329 497 516 448 497 763 884 872 1025 831 355 501 1061 799 874 573 480 537 424 520 206 38 61 58 41 178 78 4 0 0
1 1 1 2 2 2 0 0 0 0 0 16 112 341 523 677 510 23 328 207 144 179 287 701 545 566 482 284 173 70 298 221 318 349 90 318 381 145 122 584 467 0 0
1 0 0 0 0 1 0 0 0 1 3 44 209 359 253 411 1 1 1 0 1 0 2 24 20 102 55 103 1 112 415 289 463 477 265 120 264 396 1071 1107 1356 1067 177